BREEZE-M DEB, 38583

Orbit data source: Space-Track

BREEZE-M DEB, 38583 is space debris in HEO originally from a launch on Fri, 14 Mar 2008 UTC launched from the Tyuratam Missile And Space Complex (TTMTR). Debris objects in space refer to the collection of defunct objects orbiting the Earth. Examples of debris include non-operational satellites, rocket bodies, and fragments generated from explosions, collisions, or faulty payload assembly.

Loading next visibility...
Identifier
38583, 2008-011AE
Orbit
HEO
Country
Flag of CISCIS
Related business
Manufacturer
Unknown
Mission
Spacecraft
Bus & Motor
Unknown
Mass
Unknown
Launch date (UTC)
2008-03-14 (18 years ago)
Launch vehicle
Unknown
Launch site
Tyuratam Missile And Space Complex (TTMTR)
Object type
Payload
Rocket body
Debris
Shape & HBR
Unknown shape, 0.2 m
Radar Cross Section
Medium (>0.1 m² and <1 m²)

Expand to show TLE details & history
Last TLE update: 2 days ago

TLE from 2 days ago
0 BREEZE-M DEB
1 38583U 08011AE  26171.36700235  .00000525  00000-0  19072-2 0  9993
2 38583  49.3418 176.7390 6469556  10.5864 358.2541  3.20197900173950
Epoch: 2026-06-20T08:48Z
TLE epoch observation values (Epoch: 2026-06-20T08:48:29.003Z)
Latitude
-0.00023°
Longitude
136.02453°
Altitude
535.995 km
Speed
9.737 km/s
True Right ascension
11h 46m 54s
True Declination
0° 00' 01"
Sunlit
Object was in daylight at epoch
Visualization orbit readout
Latitude
Unknown
Longitude
Unknown
Altitude
Unknown
Speed
Unknown
Apparent Right ascension
Unknown
Apparent Declination
Unknown
Sunlit
N/A
Visualization observer readout
Local Sidereal Time
01:45:22
Azimuth
Unknown
Elevation
Unknown
Doppler factor
Unknown
Orbital elements
Apogee altitude
25,646.726 km
Perigee altitude
486.771 km
Semi-major axis
19,444.886 km
Eccentricity
0.64696
Inclination
49.3418°
RAAN
176.739°
Arg. of periapsis
10.5864°
True anomaly
349.36705°
Mean anomaly
358.2541°
Eccentric anomaly
355.0659°
Mean motion
0.80045 °/min
Orbital period
449.75 mins
BSTAR
0.0019072
Loading maneuver chart data...
Computing Atmospheric mass density...
Loading historical data...
Loading historical data...
Loading historical data...
Loading historical data...
Loading historical data...
Loading historical data...
Loading historical data...

Documentation

Showing up to 5 results
|